Regional Weather Roundup
Issued by NWS Charleston, SC

Current Version | Previous Version | Graphics & Text | Print | Product List | Glossary On
Versions: 1 2 3 4 5 6 7 8 9 10 11 12 13 14 15 16 17 18 19 20 21 22 23 24 25 26 27 28 29 30 31 32 33 34 35 36 37 38 39 40 41 42 43 44 45 46 47 48 49 50
000
ASUS42 KCHS 240927
RWRCHS

REGIONAL WEATHER ROUNDUP
NATIONAL WEATHER SERVICE CHARLESTON SC
500 AM EDT SAT JUN 24 2017

NOTE: "FAIR" INDICATES FEW OR NO CLOUDS BELOW 12,000 FEET WITH NO
SIGNIFICANT WEATHER AND/OR OBSTRUCTIONS TO VISIBILITY.

NOT ALL STATIONS ARE QUALITY CONTROLLED. USE DATA WITH CAUTION...
ESPECIALLY DEWPOINT OBSERVATIONS.

SCZ027-030-031-034>040-042>050-241000-
...SOUTHEAST SOUTH CAROLINA...

CITY           SKY/WX    TMP DP  RH WIND       PRES   REMARKS
N CHARLESTON   PTCLDY    79  75  87 SW12      29.97R
WATERFRONT PRK   N/A     81  77  88 SW7G14    29.95R
JOHNS ISLAND   CLOUDY    81  77  89 SW13      29.98R
PINOPOLIS        N/A     79  75  89 SW7       29.89R
MONCKS CORNER  NOT AVBL
SUMMERVILLE    NOT AVBL
BEAUFORT MCAS  MOCLDY    79  77  94 SW6       29.98R
BEAUFORT ARPT  NOT AVBL
HILTON HEAD IS PTCLDY    81  79  94 S9G18     29.99S
WALTERBORO     MOSUNNY   77  73  88 SW6       29.99R
ALLENDALE      FAIR      77  75  94 VRB5      29.96S

...SOUTHERN MIDLANDS AND PEE DEE...

CITY           SKY/WX    TMP DP  RH WIND       PRES   REMARKS
GEORGETOWN     FAIR      77  77 100 SW9       29.97S
KINGSTREE      FAIR      77  72  83 S6        29.95S
ORANGEBURG     CLEAR     76  73  91 SW7       29.96S
BARNWELL       FAIR      77  77 100 SW3       29.97R
AIKEN          FAIR      73  72  94 S6        29.99S
MANNING        FAIR      77  75  94 SW18G24   29.95F
COLUMBIA       CLEAR     79  73  82 SW8       29.92S
SUMTER         CLEAR     78  73  85 SW15      29.91S
FLORENCE       CLEAR     77  75  93 SW10      29.92S
MYRTLE BEACH   PTCLDY    79  74  84 SW10G18   29.96R
N MYRTLE BEACH MOCLDY    80  75  84 SW16      29.94R

$$

GAZ063-065-086>088-099>101-113>116-118-119-134>141-150-241000-
...SOUTHEAST GEORGIA...

CITY           SKY/WX    TMP DP  RH WIND       PRES   REMARKS
SAVANNAH ARPT  CLEAR     77  72  84 SW6       30.00R
HUNTER AAF     CLEAR     78  74  89 CALM      29.97R
FORT STEWART   CLEAR     74  71  90 CALM      29.98R
STATESBORO     PTCLDY    76  76 100 S5        29.99S
SYLVANIA       MOSUNNY   76  76  99 CALM      29.99S
CLAXTON        FAIR      73  72  98 CALM      30.00R FOG

...CSRA...CENTRAL AND FAR SOUTHEAST GEORGIA...

CITY           SKY/WX    TMP DP  RH WIND       PRES   REMARKS
THOMSON        CLEAR     74  71  89 W5        30.00S
AUGUSTA-BUSH   CLEAR     78  74  87 S3        29.95R
AUGUSTA-DANIEL CLEAR     79  72  79 SW5       29.97R
SWAINSBORO     FAIR      75  75 100 SW5       29.98F
VIDALIA        CLEAR     77  73  88 SW5       30.00R
EASTMAN        FAIR      76  76 100 CALM      30.01S
HAZLEHURST       N/A     76  76 100 SW5       29.99S
ALMA           CLEAR     74  72  93 CALM      30.00R
WAYCROSS       CLEAR     76  76 100 SW3       30.01R
JESUP          FAIR      73  70  88 CALM      30.01R
BAXLEY         FAIR      73  73 100 CALM      30.00R
BRUNSWICK      CLEAR     77  75  94 S6        30.00S
SAINT SIMONS   CLEAR     79  76  90 SW7       30.00S

$$

SCZ027-028-034-036>038-045-046-048>050-GAZ119-141-241000-
...LAKE AND SUPPLEMENTAL COASTAL OBSERVATIONS...

STATION/POSITION TIME  TEMP    WIND        PRES    WAVE   SWELL
                       AIR SEA DIR/SP/G            HT/PER HT/PER/DIR
                 (UTC) (F)     (DEG/KT/KT) (MB)    (FT/S) (FT/S/D)
WINYAH BAY       0830   80     230/ 13     1014.0S
LAKE MURRAY      0850   80     220/  9/ 13 1012.5R
ACE BASIN NERRS  0830   80        CALM     1015.0S
FORT PULASKI     0900   79 84  240/  5/  9 1015.7
SAPELO ISLAND    0900   78     200/  7     1015.0

$$

ANZ835-935-AMZ111-154-330-350-352-354-370-450-454-472-241000-
...C-MAN AND BUOY OBSERVATIONS...

STATION/POSITION TIME  TEMP    WIND        PRES    WAVE   SWELL
                       AIR SEA DIR/SP/G            HT/PER HT/PER/DIR
                 (UTC) (F)     (DEG/KT/KT) (MB)    (FT/S) (FT/S/D)
BUOY 41004       0910   81 81  210/ 21/ 25 1014.6
BUOY 41008       0850   81 82  190/ 17/ 19 1015.1F   4/ 5   2/100/ 9
FOLLY BEACH CMAN 0900   81     220/ 19/ 24 1015.6R
CAPERS NEARSHORE 0908   86 82  240/ 19/ 27 1014.5R
FRIPP NEARSHORE  0908   82 83  220/ 17/ 23 1014.8R


STATION/POSITION TIME  TEMP    WIND        PRES    WAVE   SWELL
                       AIR SEA DIR/SP/G            HT/PER HT/PER/DIR
                 (UTC) (F)     (DEG/KT/KT) (MB)    (FT/S) (FT/S/D)
5E ST. MARYS GA  0900      80                N/A     3/ 5
FRYING PAN BUOY  0910   81 80  220/ 21/ 29 1014.5
BUOY 41025       0850   81 80  230/ 23/ 29 1012.4F   8/ 7   2/130/ 9
CAPE LOOKOUT NC  0900   80     220/ 17/ 23 1013.1S
BUOY 41002       0850   81 81  210/ 16/ 19 1017.2F   4/ 9   2/110/ 9
BUOY 41010       0910   82 83  170/ 12/ 14 1017.1
ST AUGUSTINE FL  0900   78 77  190/  8/ 10 1016.3F


$$




USA.gov is the U.S. government's official web portal to all federal, state and local government web resources and services.